When you browse on this site, cookies collect data to enhance your experience and personalize the content and advertising you see.
Visit our Privacy Policy to learn more. By continuing to use the site, you agree to this use of cookies and data.
  • In Hungary
  • List of Countries
  • For 7 days
  • Water Temperature
  • Satellite Maps
  • Weather Map
  • News
  • Weather Widgets
  • user-avatar
    Login

    Hourly Weather Moore

    Today, 22 July, Monday

    Time Temperature Precipitation Wind Pressure Humidity
    00:00 +27°C° 0.3 mm 2 mps 727 mmHg 70%
    01:00 +26°C° 0.1 mm 3 mps 727 mmHg 77%
    02:00 +25°C° 0.1 mm 5 mps 727 mmHg 84%
    03:00 +23°C° 0.1 mm 6 mps 728 mmHg 91%
    04:00 +23°C° 0 mm 6 mps 728 mmHg 90%
    05:00 +23°C° 0 mm 6 mps 729 mmHg 90%
    06:00 +23°C° 0 mm 6 mps 729 mmHg 89%
    07:00 +23°C° 0 mm 7 mps 730 mmHg 87%
    08:00 +24°C° 0 mm 7 mps 730 mmHg 84%
    09:00 +24°C° 0 mm 7 mps 731 mmHg 82%
    10:00 +26°C° 0 mm 7 mps 731 mmHg 79%
    11:00 +26°C° 0 mm 7 mps 731 mmHg 76%
    12:00 +27°C° 0 mm 7 mps 732 mmHg 72%
    13:00 +28°C° 0 mm 7 mps 732 mmHg 66%
    14:00 +29°C° 0 mm 7 mps 731 mmHg 59%
    15:00 +30°C° 0 mm 7 mps 731 mmHg 53%
    16:00 +30°C° 0 mm 7 mps 731 mmHg 53%
    17:00 +29°C° 0 mm 7 mps 731 mmHg 54%
    18:00 +29°C° 0 mm 7 mps 731 mmHg 54%
    19:00 +27°C° 0 mm 6 mps 731 mmHg 60%
    20:00 +26°C° 0 mm 6 mps 731 mmHg 66%
    21:00 +23°C° 0 mm 5 mps 732 mmHg 71%
    22:00 +23°C° 0 mm 5 mps 732 mmHg 71%
    23:00 +22°C° 0 mm 5 mps 732 mmHg 71%

    Tomorrow, 23 July, Tuesday

    Time Temperature Precipitation Wind Pressure Humidity
    00:00 +21°C° 0 mm 5 mps 733 mmHg 71%
    01:00 +20°C° 0 mm 5 mps 732 mmHg 75%
    02:00 +20°C° 0 mm 5 mps 732 mmHg 79%
    03:00 +19°C° 0 mm 5 mps 732 mmHg 83%
    04:00 +19°C° 0 mm 5 mps 732 mmHg 86%
    05:00 +18°C° 0 mm 4 mps 733 mmHg 90%
    06:00 +18°C° 0 mm 4 mps 733 mmHg 93%
    07:00 +20°C° 0 mm 5 mps 733 mmHg 85%
    08:00 +22°C° 0 mm 5 mps 734 mmHg 77%
    09:00 +25°C° 0 mm 5 mps 734 mmHg 69%
    10:00 +26°C° 0 mm 5 mps 734 mmHg 61%
    11:00 +28°C° 0 mm 5 mps 734 mmHg 53%
    12:00 +29°C° 0 mm 5 mps 734 mmHg 45%
    13:00 +29°C° 0 mm 5 mps 733 mmHg 42%
    14:00 +30°C° 0 mm 5 mps 733 mmHg 40%
    15:00 +30°C° 0 mm 5 mps 732 mmHg 37%
    16:00 +30°C° 0 mm 5 mps 732 mmHg 41%
    17:00 +29°C° 0 mm 5 mps 732 mmHg 44%
    18:00 +28°C° 0 mm 4 mps 731 mmHg 48%
    19:00 +26°C° 0 mm 4 mps 731 mmHg 54%
    20:00 +24°C° 0 mm 3 mps 732 mmHg 61%
    21:00 +21°C° 0 mm 3 mps 732 mmHg 67%
    22:00 +21°C° 0 mm 3 mps 732 mmHg 71%
    23:00 +20°C° 0 mm 3 mps 732 mmHg 76%

    Day after tomorrow, 24 July, Wednesday

    Time Temperature Precipitation Wind Pressure Humidity
    00:00 +19°C° 0 mm 3 mps 732 mmHg 80%
    01:00 +19°C° 0 mm 3 mps 732 mmHg 82%
    02:00 +18°C° 0 mm 2 mps 732 mmHg 84%
    03:00 +17°C° 0 mm 2 mps 732 mmHg 87%
    04:00 +17°C° 0 mm 2 mps 732 mmHg 86%
    05:00 +17°C° 0 mm 2 mps 732 mmHg 86%
    06:00 +18°C° 0 mm 1 mps 732 mmHg 85%
    07:00 +20°C° 0 mm 1 mps 732 mmHg 75%
    08:00 +21°C° 0 mm 2 mps 733 mmHg 66%
    09:00 +25°C° 0 mm 2 mps 733 mmHg 56%
    10:00 +26°C° 0 mm 2 mps 733 mmHg 50%
    11:00 +27°C° 0 mm 2 mps 733 mmHg 43%
    12:00 +29°C° 0 mm 2 mps 732 mmHg 36%
    13:00 +30°C° 0 mm 1 mps 732 mmHg 34%
    14:00 +30°C° 0 mm 1 mps 731 mmHg 31%
    15:00 +31°C° 0 mm 1 mps 730 mmHg 29%
    16:00 +31°C° 0 mm 2 mps 730 mmHg 30%
    17:00 +31°C° 0 mm 2 mps 730 mmHg 32%
    18:00 +31°C° 0 mm 2 mps 730 mmHg 34%
    19:00 +28°C° 0 mm 3 mps 729 mmHg 40%
    20:00 +26°C° 0 mm 3 mps 729 mmHg 46%
    21:00 +23°C° 0 mm 4 mps 729 mmHg 52%
    22:00 +22°C° 0 mm 3 mps 729 mmHg 55%
    23:00 +21°C° 0 mm 3 mps 729 mmHg 59%

    25 July, Thursday

    Time Temperature Precipitation Wind Pressure Humidity
    00:00 +21°C° 0 mm 3 mps 729 mmHg 63%
    01:00 +20°C° 0 mm 3 mps 729 mmHg 64%
    02:00 +20°C° 0 mm 3 mps 729 mmHg 66%
    03:00 +19°C° 0 mm 3 mps 729 mmHg 67%
    04:00 +19°C° 0 mm 3 mps 729 mmHg 69%
    05:00 +19°C° 0 mm 3 mps 729 mmHg 72%
    06:00 +18°C° 0 mm 3 mps 730 mmHg 74%
    07:00 +21°C° 0 mm 4 mps 730 mmHg 67%
    08:00 +23°C° 0 mm 5 mps 730 mmHg 60%
    09:00 +26°C° 0 mm 6 mps 731 mmHg 53%
    10:00 +28°C° 0 mm 6 mps 731 mmHg 49%
    11:00 +29°C° 0 mm 6 mps 731 mmHg 45%
    12:00 +32°C° 0 mm 6 mps 731 mmHg 41%
    13:00 +32°C° 0 mm 6 mps 730 mmHg 40%
    14:00 +33°C° 0 mm 6 mps 730 mmHg 38%
    15:00 +33°C° 0 mm 6 mps 729 mmHg 37%
    16:00 +33°C° 0 mm 6 mps 729 mmHg 39%
    17:00 +32°C° 0 mm 6 mps 729 mmHg 41%
    18:00 +30°C° 0 mm 6 mps 729 mmHg 43%
    19:00 +28°C° 0 mm 5 mps 729 mmHg 48%
    20:00 +26°C° 0 mm 5 mps 729 mmHg 54%
    21:00 +23°C° 0 mm 5 mps 729 mmHg 59%
    22:00 +23°C° 0 mm 5 mps 729 mmHg 59%
    23:00 +22°C° 0 mm 5 mps 729 mmHg 59%

    26 July, Friday

    Time Temperature Precipitation Wind Pressure Humidity
    00:00 +21°C° 0 mm 5 mps 730 mmHg 59%
    01:00 +21°C° 0 mm 4 mps 729 mmHg 60%
    02:00 +20°C° 0 mm 4 mps 729 mmHg 62%
    03:00 +20°C° 0 mm 4 mps 729 mmHg 63%
    04:00 +20°C° 0 mm 4 mps 729 mmHg 66%
    05:00 +19°C° 0 mm 4 mps 730 mmHg 68%
    06:00 +19°C° 0 mm 4 mps 730 mmHg 70%
    07:00 +21°C° 0 mm 5 mps 730 mmHg 64%
    08:00 +23°C° 0 mm 5 mps 731 mmHg 58%
    09:00 +27°C° 0 mm 6 mps 731 mmHg 52%
    10:00 +28°C° 0 mm 6 mps 731 mmHg 48%
    11:00 +30°C° 0 mm 6 mps 731 mmHg 43%
    12:00 +33°C° 0 mm 6 mps 731 mmHg 39%
    13:00 +34°C° 0 mm 6 mps 731 mmHg 37%
    14:00 +34°C° 0 mm 6 mps 730 mmHg 35%
    15:00 +35°C° 0 mm 6 mps 730 mmHg 33%
    16:00 +34°C° 0 mm 5 mps 730 mmHg 35%
    17:00 +34°C° 0 mm 5 mps 729 mmHg 36%
    18:00 +33°C° 0 mm 5 mps 729 mmHg 38%
    19:00 +30°C° 0 mm 5 mps 729 mmHg 43%
    20:00 +28°C° 0 mm 5 mps 729 mmHg 49%
    21:00 +26°C° 0 mm 6 mps 730 mmHg 55%
    22:00 +24°C° 0 mm 6 mps 730 mmHg 58%
    23:00 +23°C° 0 mm 6 mps 730 mmHg 61%

    27 July, Saturday

    Time Temperature Precipitation Wind Pressure Humidity
    00:00 +23°C° 0 mm 6 mps 730 mmHg 65%
    01:00 +22°C° 0 mm 5 mps 730 mmHg 65%
    02:00 +22°C° 0 mm 5 mps 730 mmHg 66%
    03:00 +21°C° 0 mm 4 mps 730 mmHg 67%
    04:00 +21°C° 0 mm 4 mps 730 mmHg 68%
    05:00 +21°C° 0 mm 4 mps 731 mmHg 69%
    06:00 +20°C° 0 mm 4 mps 731 mmHg 70%
    07:00 +22°C° 0 mm 4 mps 731 mmHg 64%
    08:00 +25°C° 0 mm 5 mps 732 mmHg 58%
    09:00 +27°C° 0 mm 6 mps 732 mmHg 51%
    10:00 +30°C° 0 mm 6 mps 732 mmHg 46%
    11:00 +33°C° 0 mm 6 mps 732 mmHg 40%
    12:00 +35°C° 0 mm 6 mps 732 mmHg 34%
    13:00 +35°C° 0 mm 6 mps 732 mmHg 33%
    14:00 +36°C° 0 mm 6 mps 731 mmHg 31%
    15:00 +36°C° 0 mm 6 mps 731 mmHg 29%
    16:00 +36°C° 0 mm 6 mps 731 mmHg 31%
    17:00 +35°C° 0 mm 5 mps 730 mmHg 34%
    18:00 +34°C° 0 mm 5 mps 730 mmHg 36%
    19:00 +32°C° 0 mm 5 mps 730 mmHg 41%
    20:00 +29°C° 0 mm 5 mps 730 mmHg 45%
    21:00 +27°C° 0 mm 5 mps 730 mmHg 50%
    22:00 +27°C° 0 mm 5 mps 731 mmHg 53%
    23:00 +26°C° 0 mm 6 mps 731 mmHg 57%
    Show more